| time (UTC) | temp C | wind direction | speed KPH | gust KPH | rain 1hr cm | rain 24hr cm | rain mn cm | humidity % | barometer mb |
| 20260506230920 | 25 | 123 | 9.7 | 20.9 | 0.00 | 0.00 | 0.00 | 85 | 1021.0 |
| 20260506230416 | 26 | 146 | 14.5 | 20.9 | 0.00 | 0.00 | 0.00 | 85 | 1020.9 |
| 20260506225913 | 26 | 121 | 16.1 | 22.5 | 0.00 | 0.00 | 0.00 | 85 | 1020.8 |
| 20260506225410 | 26 | 93 | 9.7 | 17.7 | 0.00 | 0.00 | 0.00 | 84 | 1021.1 |
| 20260506224907 | 26 | 183 | 14.5 | 22.5 | 0.00 | 0.00 | 0.00 | 84 | 1020.9 |
| 20260506224405 | 26 | 79 | 19.3 | 25.7 | 0.00 | 0.00 | 0.00 | 84 | 1020.8 |
| 20260506223900 | 26 | 111 | 11.3 | 17.7 | 0.00 | 0.00 | 0.00 | 84 | 1020.8 |
| 20260506223356 | 26 | 144 | 9.7 | 17.7 | 0.00 | 0.00 | 0.00 | 84 | 1020.6 |
| 20260506222853 | 26 | 143 | 11.3 | 17.7 | 0.00 | 0.00 | 0.00 | 83 | 1020.7 |
| 20260506222349 | 26 | 216 | 17.7 | 25.7 | 0.00 | 0.00 | 0.00 | 83 | 1020.6 |
| 20260506221847 | 26 | 124 | 11.3 | 22.5 | 0.00 | 0.00 | 0.00 | 83 | 1020.4 |
| 20260506221344 | 26 | 123 | 17.7 | 20.9 | 0.00 | 0.00 | 0.00 | 83 | 1020.5 |
| 20260506220842 | 26 | 100 | 12.9 | 20.9 | 0.00 | 0.00 | 0.00 | 82 | 1020.5 |
| 20260506220337 | 26 | 108 | 17.7 | 22.5 | 0.00 | 0.00 | 0.00 | 82 | 1020.6 |
| 20260506215834 | 26 | 128 | 17.7 | 20.9 | 0.00 | 0.00 | 0.00 | 81 | 1020.5 |
| 20260506215330 | 26 | 123 | 19.3 | 25.7 | 0.00 | 0.00 | 0.00 | 81 | 1020.4 |
| 20260506214826 | 26 | 147 | 17.7 | 25.7 | 0.00 | 0.00 | 0.00 | 81 | 1020.4 |
| 20260506214323 | 26 | 142 | 12.9 | 25.7 | 0.00 | 0.00 | 0.00 | 80 | 1020.3 |
| 20260506213821 | 27 | 121 | 16.1 | 22.5 | 0.00 | 0.00 | 0.00 | 81 | 1020.4 |
| 20260506213318 | 27 | 87 | 19.3 | 29.0 | 0.00 | 0.00 | 0.00 | 80 | 1020.5 |
| 20260506212815 | 27 | 76 | 12.9 | 24.1 | 0.00 | 0.00 | 0.00 | 79 | 1020.6 |
| 20260506212311 | 27 | 100 | 11.3 | 29.0 | 0.00 | 0.00 | 0.00 | 78 | 1020.5 |
| 20260506211806 | 27 | 139 | 16.1 | 22.5 | 0.00 | 0.00 | 0.00 | 79 | 1020.3 |
| 20260506211303 | 27 | 104 | 19.3 | 24.1 | 0.00 | 0.00 | 0.00 | 78 | 1020.1 |
| 20260506210800 | 27 | 106 | 22.5 | 27.4 | 0.00 | 0.00 | 0.00 | 78 | 1020.4 |
| 20260506210257 | 27 | 103 | 16.1 | 27.4 | 0.00 | 0.00 | 0.00 | 78 | 1020.4 |
| 20260506205754 | 27 | 113 | 19.3 | 24.1 | 0.00 | 0.00 | 0.00 | 76 | 1020.3 |
| 20260506205249 | 27 | 75 | 22.5 | 33.8 | 0.00 | 0.00 | 0.00 | 76 | 1020.4 |
| 20260506204746 | 27 | 97 | 19.3 | 29.0 | 0.00 | 0.00 | 0.00 | 75 | 1020.3 |
| 20260506204244 | 28 | 107 | 25.7 | 33.8 | 0.00 | 0.00 | 0.00 | 74 | 1020.4 |
| 20260506203741 | 28 | 133 | 20.9 | 27.4 | 0.00 | 0.00 | 0.00 | 73 | 1020.1 |
| 20260506203239 | 28 | 98 | 22.5 | 30.6 | 0.00 | 0.00 | 0.00 | 73 | 1020.5 |
| 20260506202736 | 28 | 109 | 19.3 | 25.7 | 0.00 | 0.00 | 0.00 | 74 | 1020.4 |
| 20260506202232 | 28 | 236 | 8.0 | 17.7 | 0.00 | 0.00 | 0.00 | 75 | 1020.2 |
| 20260506201729 | 28 | 128 | 17.7 | 24.1 | 0.00 | 0.00 | 0.00 | 73 | 1020.3 |
| 20260506201226 | 28 | 108 | 16.1 | 27.4 | 0.00 | 0.00 | 0.00 | 72 | 1020.3 |
| 20260506200723 | 28 | 69 | 19.3 | 27.4 | 0.00 | 0.00 | 0.00 | 72 | 1020.2 |
| 20260506200220 | 28 | 180 | 19.3 | 27.4 | 0.00 | 0.00 | 0.00 | 72 | 1020.3 |
| 20260506195716 | 28 | 132 | 16.1 | 25.7 | 0.00 | 0.00 | 0.00 | 72 | 1020.5 |
| 20260506195212 | 28 | 77 | 12.9 | 20.9 | 0.00 | 0.00 | 0.00 | 73 | 1020.4 |
| 20260506194704 | 28 | 130 | 14.5 | 24.1 | 0.00 | 0.00 | 0.00 | 70 | 1020.5 |
| 20260506194200 | 28 | 87 | 24.1 | 27.4 | 0.00 | 0.00 | 0.00 | 70 | 1020.6 |
| 20260506193658 | 28 | 156 | 22.5 | 30.6 | 0.00 | 0.00 | 0.00 | 70 | 1020.6 |
| 20260506193155 | 28 | 124 | 19.3 | 29.0 | 0.00 | 0.00 | 0.00 | 70 | 1020.6 |
| 20260506192651 | 29 | 145 | 17.7 | 27.4 | 0.00 | 0.00 | 0.00 | 70 | 1020.7 |
| 20260506192147 | 29 | 153 | 16.1 | 22.5 | 0.00 | 0.00 | 0.00 | 70 | 1020.8 |
| 20260506191645 | 29 | 132 | 17.7 | 29.0 | 0.00 | 0.00 | 0.00 | 71 | 1021.0 |
| 20260506191141 | 29 | 107 | 19.3 | 24.1 | 0.00 | 0.00 | 0.00 | 69 | 1020.7 |
| 20260506190638 | 30 | 90 | 17.7 | 29.0 | 0.00 | 0.00 | 0.00 | 68 | 1020.8 |
| 20260506190135 | 30 | 128 | 17.7 | 22.5 | 0.00 | 0.00 | 0.00 | 65 | 1020.7 |
| 20260506185632 | 30 | 143 | 16.1 | 22.5 | 0.00 | 0.00 | 0.00 | 69 | 1020.6 |
| 20260506185128 | 30 | 147 | 20.9 | 27.4 | 0.00 | 0.00 | 0.00 | 66 | 1020.6 |
| 20260506184626 | 30 | 100 | 22.5 | 27.4 | 0.00 | 0.00 | 0.00 | 69 | 1021.0 |
| 20260506184123 | 30 | 139 | 17.7 | 27.4 | 0.00 | 0.00 | 0.00 | 68 | 1020.8 |
| 20260506183619 | 30 | 177 | 12.9 | 29.0 | 0.00 | 0.00 | 0.00 | 68 | 1020.9 |
| 20260506183115 | 30 | 151 | 17.7 | 35.4 | 0.00 | 0.00 | 0.00 | 66 | 1021.0 |
| 20260506182613 | 30 | 199 | 17.7 | 29.0 | 0.00 | 0.00 | 0.00 | 68 | 1021.0 |
| 20260506182110 | 30 | 98 | 11.3 | 22.5 | 0.00 | 0.00 | 0.00 | 67 | 1021.0 |
| 20260506181608 | 30 | 87 | 20.9 | 25.7 | 0.00 | 0.00 | 0.00 | 67 | 1021.1 |
| 20260506181105 | 30 | 163 | 12.9 | 25.7 | 0.00 | 0.00 | 0.00 | 71 | 1021.2 |
| 20260506180601 | 30 | 172 | 17.7 | 35.4 | 0.00 | 0.00 | 0.00 | 71 | 1021.3 |
| 20260506180058 | 30 | 171 | 12.9 | 24.1 | 0.00 | 0.00 | 0.00 | 67 | 1021.3 |
| 20260506175554 | 30 | 71 | 22.5 | 27.4 | 0.00 | 0.00 | 0.00 | 67 | 1021.5 |
| 20260506175050 | 30 | 117 | 24.1 | 27.4 | 0.00 | 0.00 | 0.00 | 68 | 1021.5 |
| 20260506174549 | 30 | 100 | 24.1 | 30.6 | 0.00 | 0.00 | 0.00 | 66 | 1021.6 |
| 20260506174045 | 30 | 134 | 19.3 | 27.4 | 0.00 | 0.00 | 0.00 | 65 | 1021.9 |
| 20260506173543 | 30 | 93 | 24.1 | 29.0 | 0.00 | 0.00 | 0.00 | 63 | 1021.8 |
| 20260506173039 | 30 | 189 | 17.7 | 25.7 | 0.00 | 0.00 | 0.00 | 65 | 1021.6 |
| 20260506172537 | 30 | 181 | 14.5 | 27.4 | 0.00 | 0.00 | 0.00 | 65 | 1021.8 |
| 20260506172033 | 30 | 97 | 20.9 | 29.0 | 0.00 | 0.00 | 0.00 | 66 | 1022.0 |
| 20260506171531 | 30 | 109 | 27.4 | 35.4 | 0.00 | 0.00 | 0.00 | 66 | 1022.1 |
| 20260506171028 | 31 | 111 | 20.9 | 35.4 | 0.00 | 0.00 | 0.00 | 64 | 1022.2 |
| 20260506170526 | 30 | 70 | 20.9 | 27.4 | 0.00 | 0.00 | 0.00 | 66 | 1022.2 |
| 20260506170023 | 30 | 115 | 24.1 | 29.0 | 0.00 | 0.00 | 0.00 | 66 | 1022.3 |
| 20260506165521 | 30 | 52 | 12.9 | 29.0 | 0.00 | 0.00 | 0.00 | 65 | 1022.4 |
| 20260506165017 | 30 | 113 | 24.1 | 33.8 | 0.00 | 0.00 | 0.00 | 66 | 1022.4 |
| 20260506164514 | 30 | 126 | 20.9 | 29.0 | 0.00 | 0.00 | 0.00 | 68 | 1022.5 |
| 20260506164012 | 30 | 207 | 11.3 | 25.7 | 0.00 | 0.00 | 0.00 | 69 | 1022.6 |
| 20260506163508 | 30 | 129 | 19.3 | 33.8 | 0.00 | 0.00 | 0.00 | 68 | 1022.8 |
| 20260506163003 | 30 | 101 | 20.9 | 33.8 | 0.00 | 0.00 | 0.00 | 68 | 1022.8 |
| 20260506162500 | 30 | 136 | 17.7 | 33.8 | 0.00 | 0.00 | 0.00 | 65 | 1022.9 |
| 20260506161957 | 31 | 124 | 16.1 | 25.7 | 0.00 | 0.00 | 0.00 | 63 | 1022.8 |
| 20260506161455 | 30 | 86 | 14.5 | 25.7 | 0.00 | 0.00 | 0.00 | 68 | 1022.7 |
| 20260506160952 | 30 | 132 | 22.5 | 33.8 | 0.00 | 0.00 | 0.00 | 66 | 1022.7 |
| 20260506160449 | 30 | 148 | 20.9 | 30.6 | 0.00 | 0.00 | 0.00 | 68 | 1022.8 |
| 20260506155946 | 30 | 109 | 22.5 | 37.0 | 0.00 | 0.00 | 0.00 | 66 | 1022.9 |
| 20260506155444 | 30 | 95 | 19.3 | 30.6 | 0.00 | 0.00 | 0.00 | 68 | 1022.9 |
| 20260506153610 | 30 | 87 | 14.5 | 27.4 | 0.00 | 0.00 | 0.00 | 66 | 1023.0 |
| 20260506153108 | 30 | 96 | 24.1 | 33.8 | 0.00 | 0.00 | 0.00 | 65 | 1023.1 |
| 20260506152605 | 30 | 144 | 17.7 | 30.6 | 0.00 | 0.00 | 0.00 | 66 | 1023.2 |
| 20260506152102 | 30 | 134 | 20.9 | 30.6 | 0.00 | 0.00 | 0.00 | 65 | 1023.3 |
| 20260506151600 | 30 | 116 | 17.7 | 30.6 | 0.00 | 0.00 | 0.00 | 68 | 1023.1 |
| 20260506151057 | 30 | 152 | 14.5 | 33.8 | 0.00 | 0.00 | 0.00 | 69 | 1023.4 |
| 20260506150554 | 30 | 145 | 19.3 | 25.7 | 0.00 | 0.00 | 0.00 | 69 | 1023.1 |
| 20260506150051 | 30 | 42 | 17.7 | 25.7 | 0.00 | 0.00 | 0.00 | 67 | 1023.1 |
| 20260506145547 | 30 | 123 | 24.1 | 30.6 | 0.00 | 0.00 | 0.00 | 66 | 1023.0 |
| 20260506145045 | 30 | 111 | 19.3 | 30.6 | 0.00 | 0.00 | 0.00 | 65 | 1023.1 |
| 20260506144542 | 30 | 149 | 20.9 | 27.4 | 0.00 | 0.00 | 0.00 | 66 | 1023.0 |
| 20260506144039 | 30 | 132 | 20.9 | 33.8 | 0.00 | 0.00 | 0.00 | 66 | 1023.0 |
| 20260506143536 | 30 | 114 | 16.1 | 27.4 | 0.00 | 0.00 | 0.00 | 63 | 1022.9 |
| 20260506143035 | 30 | 74 | 11.3 | 37.0 | 0.00 | 0.00 | 0.00 | 67 | 1023.1 |
| 20260506142532 | 30 | 159 | 16.1 | 24.1 | 0.00 | 0.00 | 0.00 | 67 | 1023.0 |
| 20260506142030 | 30 | 46 | 22.5 | 29.0 | 0.00 | 0.00 | 0.00 | 67 | 1022.9 |
| 20260506141528 | 30 | 167 | 17.7 | 20.9 | 0.00 | 0.00 | 0.00 | 67 | 1023.1 |
| 20260506141026 | 30 | 75 | 20.9 | 30.6 | 0.00 | 0.00 | 0.00 | 67 | 1023.0 |
| 20260506140523 | 30 | 83 | 14.5 | 30.6 | 0.00 | 0.00 | 0.00 | 67 | 1022.8 |
| 20260506140020 | 30 | 186 | 8.0 | 27.4 | 0.00 | 0.00 | 0.00 | 64 | 1023.0 |
| 20260506135517 | 30 | 101 | 11.3 | 29.0 | 0.00 | 0.00 | 0.00 | 66 | 1022.9 |
| 20260506135013 | 30 | 151 | 11.3 | 30.6 | 0.00 | 0.00 | 0.00 | 66 | 1023.0 |
| 20260506134509 | 30 | 143 | 20.9 | 27.4 | 0.00 | 0.00 | 0.00 | 66 | 1023.0 |
| 20260506134006 | 30 | 121 | 25.7 | 30.6 | 0.00 | 0.00 | 0.00 | 65 | 1023.1 |
| 20260506133503 | 29 | 188 | 14.5 | 30.6 | 0.00 | 0.00 | 0.00 | 67 | 1023.1 |
| 20260506132959 | 29 | 109 | 25.7 | 30.6 | 0.00 | 0.00 | 0.00 | 66 | 1023.0 |
| 20260506132457 | 29 | 109 | 17.7 | 25.7 | 0.00 | 0.00 | 0.00 | 66 | 1023.1 |
| 20260506131954 | 30 | 120 | 14.5 | 24.1 | 0.00 | 0.00 | 0.00 | 65 | 1022.8 |
| 20260506131451 | 30 | 146 | 19.3 | 24.1 | 0.00 | 0.00 | 0.00 | 64 | 1022.8 |
| 20260506130948 | 29 | 104 | 14.5 | 24.1 | 0.00 | 0.00 | 0.00 | 67 | 1022.8 |
| 20260506130444 | 29 | 168 | 14.5 | 30.6 | 0.00 | 0.00 | 0.00 | 65 | 1022.8 |
| 20260506125942 | 29 | 110 | 12.9 | 24.1 | 0.00 | 0.00 | 0.00 | 66 | 1022.7 |
| 20260506125440 | 28 | 155 | 14.5 | 25.7 | 0.00 | 0.00 | 0.00 | 67 | 1022.6 |
| 20260506124938 | 28 | 104 | 16.1 | 25.7 | 0.00 | 0.00 | 0.00 | 68 | 1022.5 |
| 20260506124435 | 29 | 149 | 9.7 | 25.7 | 0.00 | 0.00 | 0.00 | 67 | 1022.5 |
| 20260506123933 | 28 | 101 | 14.5 | 20.9 | 0.00 | 0.00 | 0.00 | 69 | 1022.2 |
| 20260506123431 | 28 | 117 | 12.9 | 17.7 | 0.00 | 0.00 | 0.00 | 70 | 1022.4 |
| 20260506122928 | 28 | 119 | 19.3 | 24.1 | 0.00 | 0.00 | 0.00 | 70 | 1022.3 |
| 20260506122425 | 28 | 141 | 22.5 | 25.7 | 0.00 | 0.00 | 0.00 | 69 | 1022.4 |
| 20260506121923 | 28 | 120 | 12.9 | 24.1 | 0.00 | 0.00 | 0.00 | 71 | 1022.4 |
| 20260506121420 | 28 | 79 | 16.1 | 25.7 | 0.00 | 0.00 | 0.00 | 70 | 1022.4 |
| 20260506120917 | 27 | 88 | 6.4 | 27.4 | 0.00 | 0.00 | 0.00 | 71 | 1022.3 |
| 20260506120414 | 27 | 69 | 8.0 | 20.9 | 0.00 | 0.00 | 0.00 | 72 | 1022.3 |
| 20260506115911 | 27 | 158 | 8.0 | 24.1 | 0.00 | 0.00 | 0.00 | 72 | 1022.3 |
| 20260506115409 | 27 | 218 | 11.3 | 17.7 | 0.00 | 0.00 | 0.00 | 72 | 1022.2 |
| 20260506114908 | 27 | 94 | 9.7 | 22.5 | 0.00 | 0.00 | 0.00 | 72 | 1021.9 |
| 20260506114405 | 27 | 87 | 20.9 | 29.0 | 0.00 | 0.00 | 0.00 | 72 | 1021.9 |
| 20260506113904 | 26 | 92 | 8.0 | 16.1 | 0.00 | 0.00 | 0.00 | 74 | 1022.1 |
| 20260506113401 | 26 | 91 | 19.3 | 25.7 | 0.00 | 0.00 | 0.00 | 74 | 1022.1 |
| 20260506112857 | 26 | 87 | 12.9 | 20.9 | 0.00 | 0.00 | 0.00 | 76 | 1021.8 |
| 20260506112354 | 26 | 89 | 17.7 | 24.1 | 0.00 | 0.00 | 0.00 | 76 | 1022.0 |
| 20260506111851 | 25 | 111 | 16.1 | 24.1 | 0.00 | 0.00 | 0.00 | 77 | 1022.1 |
| 20260506111350 | 25 | 73 | 19.3 | 25.7 | 0.00 | 0.00 | 0.00 | 77 | 1021.9 |
| 20260506110847 | 25 | 87 | 16.1 | 30.6 | 0.00 | 0.00 | 0.00 | 78 | 1021.9 |
| 20260506110344 | 25 | 75 | 17.7 | 24.1 | 0.00 | 0.00 | 0.00 | 78 | 1022.0 |
| 20260506105841 | 25 | 81 | 9.7 | 22.5 | 0.00 | 0.00 | 0.00 | 79 | 1021.9 |
| 20260506105337 | 25 | 94 | 19.3 | 30.6 | 0.00 | 0.00 | 0.00 | 79 | 1022.0 |
| 20260506104835 | 25 | 68 | 16.1 | 33.8 | 0.00 | 0.00 | 0.00 | 78 | 1021.7 |
| 20260506104332 | 25 | 90 | 17.7 | 22.5 | 0.00 | 0.00 | 0.00 | 79 | 1021.8 |
| 20260506103830 | 25 | 42 | 20.9 | 25.7 | 0.00 | 0.00 | 0.00 | 79 | 1021.9 |
| 20260506103327 | 24 | 86 | 17.7 | 24.1 | 0.00 | 0.00 | 0.00 | 79 | 1021.8 |
| 20260506102824 | 24 | 85 | 16.1 | 25.7 | 0.00 | 0.00 | 0.00 | 80 | 1021.9 |
| 20260506102322 | 24 | 87 | 12.9 | 24.1 | 0.00 | 0.00 | 0.00 | 80 | 1021.7 |
| 20260506101819 | 23 | 102 | 16.1 | 20.9 | 0.00 | 0.00 | 0.00 | 80 | 1021.5 |
| 20260506101315 | 23 | 87 | 16.1 | 24.1 | 0.00 | 0.00 | 0.00 | 80 | 1021.5 |
| 20260506100813 | 23 | 111 | 11.3 | 29.0 | 0.00 | 0.00 | 0.00 | 81 | 1021.5 |
| 20260506100312 | 23 | 24 | 9.7 | 24.1 | 0.00 | 0.00 | 0.00 | 81 | 1021.4 |
| 20260506095809 | 23 | 68 | 19.3 | 24.1 | 0.00 | 0.00 | 0.00 | 82 | 1021.4 |
| 20260506095306 | 23 | 69 | 17.7 | 24.1 | 0.00 | 0.00 | 0.00 | 82 | 1021.4 |
| 20260506094803 | 23 | 55 | 17.7 | 20.9 | 0.00 | 0.00 | 0.00 | 82 | 1021.3 |
| 20260506094301 | 23 | 89 | 17.7 | 24.1 | 0.00 | 0.00 | 0.00 | 82 | 1021.3 |
| 20260506093759 | 23 | 297 | 17.7 | 22.5 | 0.00 | 0.00 | 0.00 | 82 | 1021.3 |
| 20260506093256 | 23 | 61 | 12.9 | 33.8 | 0.00 | 0.00 | 0.00 | 83 | 1021.3 |
| 20260506092754 | 23 | 74 | 14.5 | 24.1 | 0.00 | 0.00 | 0.00 | 83 | 1021.2 |
| 20260506092252 | 23 | 65 | 22.5 | 25.7 | 0.00 | 0.00 | 0.00 | 83 | 1021.1 |
| 20260506091749 | 23 | 84 | 16.1 | 22.5 | 0.00 | 0.00 | 0.00 | 83 | 1021.2 |
| 20260506091246 | 23 | 69 | 14.5 | 22.5 | 0.00 | 0.00 | 0.00 | 83 | 1021.1 |
| 20260506090744 | 23 | 75 | 16.1 | 27.4 | 0.00 | 0.00 | 0.00 | 83 | 1021.0 |
| 20260506090241 | 23 | 73 | 16.1 | 25.7 | 0.00 | 0.00 | 0.00 | 83 | 1021.2 |
| 20260506085738 | 23 | 96 | 12.9 | 25.7 | 0.00 | 0.00 | 0.00 | 82 | 1021.1 |
| 20260506085234 | 23 | 44 | 22.5 | 30.6 | 0.00 | 0.00 | 0.00 | 82 | 1021.1 |
| 20260506084730 | 23 | 144 | 17.7 | 27.4 | 0.00 | 0.00 | 0.00 | 82 | 1021.0 |
| 20260506084226 | 23 | 74 | 14.5 | 24.1 | 0.00 | 0.00 | 0.00 | 82 | 1021.0 |
| 20260506083724 | 23 | 66 | 16.1 | 25.7 | 0.00 | 0.00 | 0.00 | 82 | 1021.2 |
| 20260506083222 | 23 | 83 | 22.5 | 30.6 | 0.00 | 0.00 | 0.00 | 82 | 1020.9 |
| 20260506082719 | 23 | 84 | 14.5 | 24.1 | 0.00 | 0.00 | 0.00 | 82 | 1021.1 |
| 20260506082214 | 24 | 76 | 12.9 | 25.7 | 0.00 | 0.00 | 0.00 | 82 | 1020.9 |
| 20260506081707 | 24 | 100 | 16.1 | 24.1 | 0.00 | 0.00 | 0.00 | 82 | 1021.0 |
| 20260506081204 | 23 | 123 | 19.3 | 25.7 | 0.00 | 0.00 | 0.00 | 83 | 1020.9 |
| 20260506080701 | 24 | 95 | 12.9 | 24.1 | 0.00 | 0.00 | 0.00 | 83 | 1020.7 |
| 20260506080158 | 23 | 85 | 14.5 | 24.1 | 0.00 | 0.00 | 0.00 | 84 | 1020.8 |
| 20260506073141 | 23 | 73 | 11.3 | 16.1 | 0.00 | 0.00 | 0.00 | 85 | 1020.6 |
| 20260506072638 | 23 | 74 | 19.3 | 24.1 | 0.00 | 0.00 | 0.00 | 85 | 1020.7 |
| 20260506072136 | 23 | 85 | 16.1 | 25.7 | 0.00 | 0.00 | 0.00 | 85 | 1020.7 |
| 20260506071633 | 23 | 110 | 9.7 | 22.5 | 0.00 | 0.00 | 0.00 | 85 | 1020.8 |
| 20260506071131 | 23 | 104 | 16.1 | 22.5 | 0.00 | 0.00 | 0.00 | 84 | 1020.7 |
| 20260506070627 | 23 | 84 | 12.9 | 20.9 | 0.00 | 0.00 | 0.00 | 84 | 1020.7 |
| 20260506070125 | 23 | 102 | 14.5 | 22.5 | 0.00 | 0.00 | 0.00 | 84 | 1021.0 |
| 20260506062103 | 24 | 69 | 9.7 | 27.4 | 0.00 | 0.00 | 0.00 | 82 | 1021.0 |
| 20260506061557 | 24 | 77 | 16.1 | 27.4 | 0.00 | 0.00 | 0.00 | 82 | 1021.0 |
| 20260506061055 | 24 | 48 | 14.5 | 22.5 | 0.00 | 0.00 | 0.00 | 82 | 1021.1 |
| 20260506060554 | 24 | 90 | 8.0 | 24.1 | 0.00 | 0.00 | 0.00 | 82 | 1021.1 |
| 20260506051022 | 24 | 141 | 16.1 | 20.9 | 0.00 | 0.00 | 0.00 | 85 | 1021.2 |
| 20260506050520 | 24 | 148 | 9.7 | 24.1 | 0.00 | 0.00 | 0.00 | 85 | 1021.4 |
| 20260506045011 | 24 | 98 | 14.5 | 25.7 | 0.00 | 0.00 | 0.00 | 85 | 1021.4 |
| 20260506044509 | 24 | 85 | 9.7 | 20.9 | 0.00 | 0.00 | 0.00 | 84 | 1021.5 |
| 20260506044005 | 24 | 72 | 12.9 | 22.5 | 0.00 | 0.00 | 0.00 | 84 | 1021.6 |
| 20260506043502 | 24 | 93 | 17.7 | 22.5 | 0.00 | 0.00 | 0.00 | 84 | 1021.5 |
| 20260506043000 | 24 | 79 | 6.4 | 22.5 | 0.00 | 0.00 | 0.00 | 84 | 1021.4 |
| 20260506042500 | 24 | 51 | 12.9 | 25.7 | 0.00 | 0.00 | 0.00 | 84 | 1021.6 |
| 20260506041957 | 24 | 350 | 8.0 | 22.5 | 0.00 | 0.00 | 0.00 | 84 | 1021.4 |
| 20260506041455 | 24 | 77 | 14.5 | 25.7 | 0.00 | 0.00 | 0.00 | 84 | 1021.6 |
| 20260506040952 | 24 | 77 | 14.5 | 25.7 | 0.00 | 0.00 | 0.00 | 83 | 1021.9 |
| 20260506040450 | 24 | 95 | 16.1 | 25.7 | 0.00 | 0.00 | 0.00 | 83 | 1021.6 |
| 20260506035946 | 24 | 71 | 12.9 | 20.9 | 0.00 | 0.00 | 0.00 | 83 | 1021.8 |
| 20260506035443 | 25 | 83 | 11.3 | 22.5 | 0.00 | 0.00 | 0.00 | 84 | 1021.8 |
| 20260506034939 | 25 | 53 | 11.3 | 20.9 | 0.00 | 0.00 | 0.00 | 84 | 1021.7 |
| 20260506034437 | 25 | 104 | 17.7 | 25.7 | 0.00 | 0.00 | 0.00 | 84 | 1021.8 |
| 20260506033934 | 25 | 72 | 12.9 | 16.1 | 0.00 | 0.00 | 0.00 | 84 | 1022.0 |
| 20260506033432 | 25 | 78 | 9.7 | 20.9 | 0.00 | 0.00 | 0.00 | 85 | 1021.9 |
| 20260506032928 | 25 | 76 | 17.7 | 22.5 | 0.00 | 0.00 | 0.00 | 85 | 1021.8 |
| 20260506032425 | 25 | 90 | 12.9 | 16.1 | 0.00 | 0.00 | 0.00 | 84 | 1021.8 |
| 20260506031921 | 25 | 35 | 8.0 | 20.9 | 0.00 | 0.00 | 0.00 | 85 | 1022.1 |
| 20260506031419 | 25 | 98 | 14.5 | 16.1 | 0.00 | 0.00 | 0.00 | 84 | 1021.9 |
| 20260506030916 | 25 | 87 | 12.9 | 16.1 | 0.00 | 0.00 | 0.00 | 84 | 1022.0 |
| 20260506030414 | 25 | 43 | 6.4 | 22.5 | 0.00 | 0.00 | 0.00 | 85 | 1022.0 |
| 20260506025911 | 25 | 127 | 6.4 | 22.5 | 0.00 | 0.00 | 0.00 | 85 | 1021.9 |
| 20260506025408 | 25 | 58 | 8.0 | 17.7 | 0.00 | 0.00 | 0.00 | 85 | 1022.1 |
| 20260506024905 | 25 | 95 | 14.5 | 22.5 | 0.00 | 0.00 | 0.00 | 85 | 1022.0 |
| 20260506024402 | 25 | 90 | 14.5 | 17.7 | 0.00 | 0.00 | 0.00 | 85 | 1022.1 |
| 20260506023857 | 25 | 137 | 6.4 | 17.7 | 0.00 | 0.00 | 0.00 | 85 | 1021.9 |
| 20260506023355 | 25 | 78 | 9.7 | 16.1 | 0.00 | 0.00 | 0.00 | 85 | 1021.8 |
| 20260506022851 | 25 | 69 | 16.1 | 17.7 | 0.00 | 0.00 | 0.00 | 85 | 1022.0 |
| 20260506022349 | 25 | 60 | 8.0 | 17.7 | 0.00 | 0.00 | 0.00 | 85 | 1021.9 |
| 20260506021847 | 25 | 57 | 9.7 | 16.1 | 0.00 | 0.00 | 0.00 | 85 | 1021.9 |
| 20260506021343 | 25 | 81 | 12.9 | 17.7 | 0.00 | 0.00 | 0.00 | 85 | 1021.9 |
| 20260506020840 | 25 | 113 | 6.4 | 17.7 | 0.00 | 0.00 | 0.00 | 85 | 1022.0 |
| 20260506020338 | 25 | 99 | 12.9 | 16.1 | 0.00 | 0.00 | 0.00 | 85 | 1022.0 |
| 20260506015835 | 25 | 91 | 14.5 | 16.1 | 0.00 | 0.00 | 0.00 | 85 | 1021.8 |
| 20260506015333 | 25 | 70 | 9.7 | 17.7 | 0.00 | 0.00 | 0.00 | 84 | 1022.0 |
| 20260506014829 | 25 | 97 | 9.7 | 16.1 | 0.00 | 0.00 | 0.00 | 84 | 1021.9 |
| 20260506014326 | 25 | 90 | 11.3 | 14.5 | 0.00 | 0.00 | 0.00 | 84 | 1022.0 |
| 20260506013823 | 25 | 106 | 6.4 | 14.5 | 0.00 | 0.00 | 0.00 | 84 | 1021.9 |
| 20260506013320 | 25 | 92 | 9.7 | 14.5 | 0.00 | 0.00 | 0.00 | 84 | 1021.8 |
| 20260506012817 | 25 | 92 | 9.7 | 17.7 | 0.00 | 0.00 | 0.00 | 84 | 1021.8 |
| 20260506012314 | 25 | 91 | 6.4 | 16.1 | 0.00 | 0.00 | 0.00 | 84 | 1021.7 |
| 20260506011811 | 25 | 79 | 9.7 | 14.5 | 0.00 | 0.00 | 0.00 | 84 | 1021.8 |
| 20260506011307 | 25 | 59 | 9.7 | 16.1 | 0.00 | 0.00 | 0.00 | 84 | 1021.7 |
| 20260506010805 | 25 | 76 | 9.7 | 16.1 | 0.00 | 0.00 | 0.00 | 84 | 1021.6 |
| 20260506010303 | 25 | 72 | 8.0 | 14.5 | 0.00 | 0.00 | 0.00 | 84 | 1021.6 |
| 20260506005800 | 25 | 95 | 11.3 | 16.1 | 0.00 | 0.00 | 0.00 | 84 | 1021.5 |
| 20260506005256 | 25 | 87 | 8.0 | 17.7 | 0.00 | 0.00 | 0.00 | 83 | 1021.8 |
| 20260506004752 | 25 | 326 | 3.2 | 11.3 | 0.00 | 0.00 | 0.00 | 83 | 1021.6 |
| 20260506004250 | 25 | 80 | 4.8 | 14.5 | 0.00 | 0.00 | 0.00 | 83 | 1021.6 |
| 20260506003746 | 25 | 238 | 9.7 | 14.5 | 0.00 | 0.00 | 0.00 | 83 | 1021.7 |
| 20260506003243 | 25 | 95 | 8.0 | 16.1 | 0.00 | 0.00 | 0.00 | 83 | 1021.6 |
| 20260506002739 | 25 | 156 | 12.9 | 20.9 | 0.00 | 0.00 | 0.00 | 83 | 1021.6 |
| 20260506002235 | 25 | 87 | 9.7 | 17.7 | 0.00 | 0.00 | 0.00 | 83 | 1021.6 |
| 20260506001731 | 25 | 75 | 9.7 | 16.1 | 0.00 | 0.00 | 0.00 | 83 | 1021.5 |
| 20260506001229 | 25 | 73 | 9.7 | 22.5 | 0.00 | 0.00 | 0.00 | 83 | 1021.6 |
| 20260506000725 | 25 | 93 | 14.5 | 16.1 | 0.00 | 0.00 | 0.00 | 83 | 1021.5 |
| 20260506000223 | 25 | 102 | 6.4 | 24.1 | 0.00 | 0.00 | 0.00 | 82 | 1021.3 |
| 20260505235720 | 25 | 145 | 9.7 | 24.1 | 0.00 | 0.00 | 0.00 | 82 | 1021.3 |
| 20260505235218 | 25 | 85 | 16.1 | 27.4 | 0.00 | 0.00 | 0.00 | 82 | 1021.5 |
| 20260505234714 | 25 | 115 | 16.1 | 17.7 | 0.00 | 0.00 | 0.00 | 83 | 1021.2 |
| 20260505234212 | 25 | 93 | 11.3 | 17.7 | 0.00 | 0.00 | 0.00 | 83 | 1021.3 |
| 20260505233708 | 25 | 104 | 9.7 | 16.1 | 0.00 | 0.00 | 0.00 | 82 | 1021.1 |
| 20260505233206 | 25 | 110 | 14.5 | 17.7 | 0.00 | 0.00 | 0.00 | 82 | 1021.2 |
| 20260505232703 | 25 | 111 | 6.4 | 24.1 | 0.00 | 0.00 | 0.00 | 82 | 1021.1 |
| 20260505232201 | 26 | 113 | 14.5 | 20.9 | 0.00 | 0.00 | 0.00 | 81 | 1021.0 |
| 20260505231657 | 25 | 106 | 17.7 | 20.9 | 0.00 | 0.00 | 0.00 | 81 | 1021.1 |
| 20260505231156 | 25 | 94 | 12.9 | 22.5 | 0.00 | 0.00 | 0.00 | 81 | 1021.0 |